Temperature
17 17 17 17 17 17 17 17 17 17 17 17 17 17 17 17 16 16 16 16 16 16 16 16 16 16 16 16 16 16 16 16 15 15 15 15 15 14 14 14 14 14 14
18 17 17 17 17 17 17 17 17 17 17 17 17 17 16 16 16 16 16 16 16 16 16 16 16 15 15 16 15 15 15 15 15 15 15 14 14 14 14 14 14 14 14
17 17 17 17 17 17 17 17 17 17 17 17 17 16 16 16 16 16 16 16 16 16 16 15 15 15 15 15 15 15 15 15 15 15 14 14 14 14 14 14 14 13 13
17 16 17 17 17 17 17 17 17 16 16 16 16 16 16 16 16 16 16 16 16 16 15 15 15 15 15 15 15 15 15 15 15 15 14 13 13 13 13 13 13 13 13
16 16 16 16 17 17 17 16 16 16 16 16 16 16 16 16 16 16 16 16 16 15 15 15 15 15 15 15 15 15 15 15 15 14 13 13 13 13 13 13 13 13 13
16 16 16 16 16 16 16 16 16 16 16 16 16 16 16 16 16 16 15 15 15 15 15 15 15 15 15 15 14 14 14 14 14 14 13 13 13 13 13 12 12 12 12
15 15 16 16 16 16 16 16 16 16 16 16 16 16 15 15 15 15 15 15 15 15 15 15 15 15 15 14 14 14 14 14 13 13 13 13 13 13 12 12 12 12 12
15 15 15 16 16 16 16 16 16 16 16 16 15 15 15 15 15 15 15 15 15 15 15 15 15 14 14 14 14 14 14 14 13 13 12 12 12 12 12 12 12 12 12
14 15 15 15 15 15 15 15 15 15 16 15 15 15 15 15 15 15 15 15 15 15 14 14 14 14 14 14 14 14 14 13 13 13 12 12 12 12 12 12 12 12 11
14 14 14 15 15 15 15 15 15 15 15 15 15 15 15 15 15 15 15 15 14 14 14 14 14 14 14 14 14 14 13 13 12 12 12 12 12 11 11 11 11 11 11
13 14 14 14 14 14 14 15 15 15 15 15 15 15 15 14 14 14 14 14 14 14 14 14 14 14 14 14 13 13 13 12 12 12 11 11 11 11 11 11 11 11 11
13 13 13 14 14 14 14 14 14 14 14 14 14 14 14 14 14 14 14 14 14 14 14 14 14 13 13 13 13 13 12 12 12 11 11 11 11 11 11 11 11 10 10
12 13 13 13 13 14 14 14 14 14 14 14 14 14 14 14 14 14 14 14 13 13 13 13 13 13 13 13 13 12 12 12 11 11 11 11 11 10 10 10 10 10 10
12 12 12 13 13 13 13 13 13 13 14 14 14 14 14 14 13 13 13 13 13 13 13 13 13 13 13 12 12 12 12 11 11 11 11 11 10 10 10 10 10 9 9
12 12 12 12 13 13 13 13 13 13 13 13 13 14 13 13 13 13 13 13 13 13 13 13 12 12 12 12 12 12 11 11 11 10 10 10 10 10 10 9 9 9 9
12 12 12 12 12 12 12 12 13 13 13 13 13 13 13 13 13 13 13 13 13 12 12 12 12 12 12 12 11 11 11 11 10 10 10 10 10 10 9 9 9 9 9
11 11 11 12 12 12 12 12 12 12 12 12 13 13 13 13 13 13 12 12 12 12 12 12 12 12 11 11 11 11 11 10 10 10 9 9 9 9 9 9 9 9 9
11 11 11 11 11 11 11 12 11 12 12 12 12 12 12 12 12 12 12 12 12 12 12 12 11 11 11 11 10 10 10 10 10 9 9 9 9 9 9 9 9 9 9
10 10 11 11 11 11 11 11 11 11 11 11 12 12 12 12 12 12 12 12 11 11 11 11 11 11 11 10 10 10 10 9 9 9 9 9 8 8 8 8 8 8 8
10 10 10 10 10 10 11 10 11 11 11 11 11 11 11 11 11 11 11 11 11 11 11 11 11 10 10 10 10 10 9 9 9 9 8 8 8 8 8 8 8 8 8
10 10 10 10 10 10 10 10 10 10 10 10 11 11 11 11 11 11 11 11 11 11 11 10 10 10 10 10 9 9 9 9 9 8 8 8 8 8 8 8 8 7 7
9 9 9 9 9 9 9 10 10 10 10 10 10 10 10 10 10 10 10 10 10 10 10 10 10 10 9 9 9 8 8 8 8 8 8 8 7 7 7 7 7 7 7
9 9 9 9 9 9 9 9 9 9 9 9 9 10 10 10 10 10 10 10 10 10 10 10 9 9 9 9 8 8 8 8 7 7 8 7 7 7 7 7 7 7 7
8 8 8 9 9 9 9 9 9 9 9 9 9 9 9 10 10 10 9 9 9 9 9 9 9 9 8 8 8 8 8 8 7 7 7 7 7 7 6 6 6 6 6
8 8 8 8 8 8 8 8 9 9 9 9 9 9 9 9 9 9 9 9 9 9 9 9 8 8 8 8 8 8 8 7 7 6 6 6 6 6 6 6 6 6 6
7 7 7 7 8 8 8 8 8 8 8 8 8 8 8 9 9 9 9 8 8 8 8 8 8 8 8 8 7 7 7 7 7 6 6 6 6 6 6 6 5 5 5
Wind_Speed
9 13 17 15 16 16 16 16 16 15 15 14 14 14 14 14 13 13 13 13 13 13 13 13 13 12 12 12 12 12 12 12 12 12 12 12 11 11 11 9 8 9 11
11 15 18 16 16 16 16 16 16 15 15 14 14 14 14 13 13 13 13 13 13 12 12 12 12 12 12 12 12 12 12 12 12 11 10 10 10 10 9 9 9 9 9
13 15 18 16 16 16 16 16 16 15 15 14 14 13 13 13 13 13 13 12 12 12 12 12 12 12 12 12 11 11 11 11 10 8 6 8 9 9 8 8 8 8 8
13 15 16 17 16 16 16 16 15 15 14 14 13 13 13 13 13 13 12 12 12 12 12 12 12 12 12 12 11 11 10 10 8 5 6 7 7 9 8 8 8 8 8
12 14 16 17 17 16 16 16 15 14 14 13 13 13 13 12 12 12 12 12 11 11 12 12 12 11 11 11 10 10 10 9 7 5 7 6 7 8 8 8 8 8 8
12 14 16 17 17 16 16 15 15 14 13 13 12 12 12 12 12 11 11 11 11 11 11 11 11 11 11 10 10 10 9 7 5 6 6 6 6 7 7 8 8 8 8
12 13 16 17 16 16 15 15 14 13 13 12 12 12 12 12 11 11 11 11 11 11 11 11 10 10 10 9 9 9 8 6 5 6 6 6 7 8 8 8 8 8 8
11 12 15 16 16 15 15 14 14 13 12 12 11 11 11 11 11 11 11 10 10 10 10 10 9 9 9 9 8 8 7 5 5 6 6 7 8 8 8 8 8 8 8
10 11 12 14 15 14 14 14 13 13 12 12 11 11 11 11 11 11 10 10 10 10 10 9 9 9 9 8 8 7 6 4 5 5 6 7 8 8 9 9 9 9 9
8 9 10 11 12 13 13 13 13 13 12 12 11 11 11 11 10 10 10 10 10 9 9 9 9 9 8 8 7 7 5 3 5 6 6 7 8 8 8 8 8 8 8
7 7 8 9 9 10 11 12 12 12 12 11 11 12 10 9 9 9 9 9 9 9 8 8 8 8 7 7 7 5 4 4 5 5 6 8 8 8 8 8 8 9 8
7 7 6 7 7 8 8 10 10 10 10 9 9 10 8 7 7 8 10 9 9 9 8 8 8 7 5 5 5 4 3 4 4 5 6 7 7 8 8 8 8 8 8
8 6 6 6 6 7 6 7 6 7 7 8 8 8 7 6 6 6 6 7 7 7 6 6 5 4 3 3 3 3 3 3 4 5 6 7 7 7 8 8 8 7 7
7 6 6 6 6 6 6 5 6 6 6 6 7 8 7 5 5 5 5 5 4 4 4 3 3 3 3 4 4 4 4 3 4 4 7 8 7 7 7 7 7 7 7
6 6 6 6 6 5 5 4 5 5 6 6 6 7 7 5 5 5 4 4 4 3 3 3 3 3 3 4 4 4 4 4 4 4 5 8 7 7 7 7 7 7 7
7 7 6 6 6 6 5 5 4 5 5 6 6 6 7 6 5 5 4 4 4 3 3 3 3 3 3 3 3 4 4 4 4 3 4 5 7 7 7 6 6 6 7
7 6 6 5 5 5 5 5 4 4 5 4 5 6 6 6 6 5 4 4 4 4 4 3 3 3 3 3 4 4 3 3 3 3 3 2 3 6 6 6 6 7 7
5 5 5 4 5 4 4 4 3 4 4 4 4 5 5 6 6 6 4 4 4 4 3 3 3 3 3 3 3 3 3 3 3 3 3 3 2 3 4 6 7 7 8
4 4 5 5 5 4 4 3 3 3 3 3 4 4 4 5 5 5 4 4 5 4 3 3 3 3 3 3 2 2 3 3 2 2 2 2 2 2 2 4 5 6 8
3 3 4 4 4 4 3 3 2 2 1 2 3 3 5 4 5 5 4 5 5 4 3 3 3 3 3 3 2 2 2 2 2 2 2 1 1 1 2 2 3 4 6
1 2 3 4 4 4 3 3 2 2 1 1 1 3 4 4 5 4 4 5 5 4 4 4 4 4 3 3 2 2 2 2 2 2 2 2 1 0 1 2 3 4 5
1 2 3 4 4 4 3 3 2 2 1 1 1 2 3 4 5 4 4 4 5 4 5 5 4 3 2 2 2 2 2 3 3 3 3 2 2 1 1 2 3 4 5
1 1 2 4 4 4 4 3 2 1 1 1 1 2 2 3 4 4 4 4 5 5 5 5 5 4 3 3 1 1 2 2 1 2 3 3 2 2 2 2 3 4 5
2 2 1 2 3 3 4 4 5 4 3 3 2 2 3 3 4 4 4 4 4 4 5 5 5 4 4 4 2 1 1 1 2 2 2 2 2 3 3 2 3 4 5
2 2 1 1 2 3 3 4 4 4 3 2 2 2 2 3 3 3 3 3 4 3 4 4 5 4 4 4 3 2 1 1 2 2 3 2 2 2 3 3 3 4 5
2 2 1 1 0 1 2 3 4 4 3 3 3 3 2 2 3 4 4 3 3 3 3 3 3 4 4 4 3 2 2 1 1 2 3 3 4 3 3 3 3 4 5
Wind_Direction
161 156 152 151 147 142 140 139 137 134 131 129 127 125 122 118 115 111 107 105 104 103 103 102 100 98 95 91 87 85 83 82 79 76 75 75 74 73 69 61 60 67 61
155 154 150 149 146 142 140 139 137 135 133 131 129 126 123 120 117 113 109 106 104 103 102 101 99 98 95 92 89 87 85 83 81 77 78 81 74 70 67 59 51 61 62
148 150 151 147 146 142 140 139 136 135 134 132 130 128 125 123 120 117 112 108 105 103 101 99 96 94 93 92 91 89 86 83 81 78 82 82 78 68 64 64 63 64 61
145 149 151 145 144 143 142 140 138 136 134 132 131 131 129 125 122 119 115 110 107 105 103 100 97 94 92 91 90 90 89 85 80 75 78 74 73 66 61 64 62 60 57
144 148 145 143 142 142 141 140 139 138 136 134 133 133 132 128 123 120 118 114 110 107 104 101 99 96 93 92 90 90 90 86 84 78 75 73 71 66 63 62 57 57 55
147 146 145 144 143 141 141 140 138 137 137 136 136 134 131 128 124 120 117 116 113 110 106 102 99 97 95 93 91 89 89 90 96 80 72 70 72 65 60 59 56 53 52
150 146 147 146 145 143 141 140 139 138 138 138 138 135 133 128 126 124 120 116 114 112 109 106 103 100 98 96 93 90 86 80 82 82 76 70 65 64 62 60 56 52 50
150 147 147 147 146 145 143 141 140 139 138 137 136 136 133 131 128 128 124 119 118 116 113 109 105 102 101 98 95 92 88 80 85 82 79 74 65 62 60 57 52 49 46
145 143 144 151 149 146 144 142 141 139 136 134 133 132 130 130 129 127 124 122 119 116 112 109 106 104 102 99 97 94 89 76 83 81 78 71 63 60 59 57 52 49 46
140 142 144 147 151 152 150 143 140 137 134 132 130 128 128 126 126 124 123 120 118 115 114 112 110 106 103 100 99 98 98 103 86 83 74 69 64 62 59 57 53 48 43
143 143 144 145 150 151 152 149 145 139 136 136 133 127 132 139 138 133 122 118 119 116 114 116 115 111 109 105 102 106 116 98 90 78 73 66 63 61 58 56 53 47 42
157 153 148 147 147 149 149 153 155 153 152 154 149 145 146 145 139 132 122 118 117 116 116 115 118 123 128 120 118 130 115 105 93 85 75 63 61 61 58 55 51 45 39
165 156 155 152 151 150 150 154 155 155 157 159 156 154 149 142 139 139 138 132 128 129 127 124 134 131 129 119 121 120 113 107 95 89 74 60 59 60 56 53 48 42 34
168 163 163 160 157 157 156 157 160 161 161 159 162 160 155 148 151 150 147 147 147 146 140 139 126 123 130 130 129 123 122 111 101 93 74 60 59 57 56 51 46 40 33
176 174 172 171 166 162 160 159 164 167 165 162 162 165 164 160 161 158 153 150 151 149 148 142 138 129 129 129 128 129 126 118 111 104 89 65 59 58 57 50 42 35 29
190 187 181 180 175 171 170 169 169 169 164 165 167 168 169 165 164 164 156 152 151 153 150 152 142 138 132 135 135 130 125 122 114 108 98 85 68 57 54 45 35 29 22
201 195 190 183 180 178 174 170 170 172 167 169 169 171 171 169 167 164 159 157 155 156 154 147 141 140 137 140 142 135 128 126 123 110 99 92 88 67 56 44 36 26 18
208 200 195 181 182 179 175 172 167 175 170 165 165 170 171 169 169 164 161 159 159 156 155 151 154 154 152 157 156 149 146 144 138 121 108 93 78 69 61 46 34 24 15
217 206 198 189 182 175 169 162 155 154 163 158 157 161 161 162 170 169 163 157 160 157 157 157 160 164 161 157 155 156 162 166 155 149 130 102 78 55 44 45 32 20 9
225 208 194 197 180 158 145 136 125 124 140 157 161 161 165 161 164 167 163 160 161 160 160 162 157 153 155 153 155 155 179 183 184 176 167 148 103 54 24 6 360 2 1
237 209 200 190 168 157 161 170 174 188 177 179 168 161 171 167 166 166 166 165 170 173 172 168 159 154 148 147 159 174 191 201 207 202 213 218 194 326 343 343 341 340 340
229 215 199 185 179 179 182 188 194 192 197 193 199 171 173 174 170 170 175 175 176 176 174 174 166 163 154 167 195 197 213 203 208 222 227 234 256 267 288 311 328 334 333
299 254 215 189 183 182 170 150 135 141 155 177 200 200 195 185 177 173 179 181 179 180 181 181 180 177 173 174 199 237 239 240 222 202 222 232 259 270 263 280 305 316 325
319 299 232 196 180 175 175 170 175 191 203 224 215 215 198 190 182 178 177 180 177 179 180 181 185 186 182 181 183 249 298 312 253 243 214 227 261 266 268 273 294 302 316
335 333 243 176 178 178 189 188 186 197 207 206 199 200 196 186 181 176 173 176 177 179 183 184 182 184 191 193 189 190 201 230 253 258 261 266 271 260 273 278 286 298 314
348 355 359 150 156 195 189 200 198 198 197 194 197 196 203 197 187 178 175 173 173 174 177 184 181 182 187 192 193 193 195 204 226 252 270 286 290 285 281 283 287 300 317
Height
1518 1520 1522 1524 1527 1528 1530 1532 1533 1534 1535 1536 1537 1537 1538 1538 1539 1539 1539 1540 1540 1540 1540 1540 1540 1540 1540 1540 1540 1540 1540 1540 1539 1539 1539 1539 1538 1538 1538 1537 1537 1536 1535
1517 1519 1522 1524 1526 1528 1530 1532 1534 1535 1536 1537 1537 1538 1539 1539 1540 1540 1540 1541 1541 1541 1541 1541 1541 1541 1541 1541 1541 1541 1540 1540 1540 1540 1540 1539 1539 1539 1538 1538 1537 1537 1536
1516 1519 1521 1524 1526 1528 1530 1532 1534 1535 1536 1537 1538 1539 1539 1540 1540 1541 1541 1541 1542 1542 1542 1542 1542 1542 1542 1541 1541 1541 1541 1541 1540 1540 1540 1540 1540 1539 1539 1538 1537 1537 1536
1517 1519 1521 1524 1526 1528 1530 1532 1534 1535 1537 1537 1538 1539 1540 1540 1541 1541 1542 1542 1542 1542 1542 1542 1542 1542 1542 1542 1542 1541 1541 1541 1541 1541 1541 1541 1540 1539 1539 1538 1538 1537 1536
1517 1519 1521 1524 1526 1528 1530 1532 1534 1535 1537 1538 1539 1539 1540 1541 1541 1542 1542 1542 1543 1543 1543 1543 1543 1543 1542 1542 1542 1542 1541 1541 1541 1541 1541 1541 1540 1540 1539 1539 1538 1537 1536
1517 1519 1521 1524 1526 1528 1530 1532 1534 1535 1537 1538 1539 1540 1540 1541 1542 1542 1542 1543 1543 1543 1543 1543 1543 1543 1543 1542 1542 1542 1541 1541 1541 1541 1541 1541 1541 1540 1539 1539 1538 1537 1536
1517 1519 1521 1524 1526 1528 1530 1532 1534 1535 1536 1538 1539 1540 1541 1541 1542 1542 1543 1543 1543 1543 1543 1543 1543 1543 1543 1543 1542 1542 1542 1541 1542 1541 1541 1541 1540 1540 1539 1538 1538 1537 1536
1517 1519 1521 1523 1526 1528 1530 1532 1533 1535 1536 1537 1538 1540 1540 1541 1542 1542 1543 1543 1543 1543 1543 1543 1543 1543 1543 1542 1542 1542 1542 1542 1541 1541 1541 1541 1540 1539 1539 1538 1537 1536 1535
1517 1519 1521 1523 1525 1527 1529 1531 1533 1534 1535 1537 1538 1539 1540 1541 1542 1542 1542 1543 1543 1543 1543 1543 1543 1543 1543 1542 1542 1542 1541 1541 1542 1541 1541 1540 1540 1539 1538 1537 1536 1535 1534
1516 1518 1520 1522 1524 1527 1529 1531 1532 1533 1535 1536 1537 1538 1539 1540 1541 1542 1542 1542 1543 1543 1543 1543 1543 1543 1542 1542 1542 1541 1541 1541 1541 1541 1541 1540 1539 1539 1538 1536 1535 1534 1533
1515 1517 1519 1521 1523 1525 1527 1529 1531 1533 1534 1535 1536 1537 1538 1540 1540 1541 1541 1542 1542 1542 1543 1543 1543 1542 1542 1541 1541 1541 1541 1541 1541 1541 1540 1540 1539 1538 1537 1536 1535 1533 1532
1513 1515 1518 1520 1522 1524 1526 1528 1530 1531 1533 1534 1535 1536 1537 1538 1539 1540 1540 1541 1542 1542 1542 1542 1542 1542 1541 1541 1541 1541 1541 1540 1540 1540 1540 1539 1538 1537 1536 1535 1534 1533 1531
1513 1514 1516 1518 1520 1522 1524 1526 1528 1529 1531 1533 1534 1535 1536 1537 1538 1539 1539 1540 1541 1541 1541 1541 1541 1541 1541 1540 1540 1540 1540 1540 1540 1540 1539 1538 1538 1537 1536 1534 1533 1532 1531
1512 1513 1515 1517 1519 1521 1523 1524 1526 1527 1529 1530 1532 1533 1534 1535 1536 1537 1538 1539 1539 1540 1540 1540 1540 1540 1539 1539 1539 1539 1539 1539 1539 1539 1538 1538 1537 1536 1535 1534 1532 1531 1530
1510 1512 1513 1515 1517 1519 1521 1523 1524 1526 1527 1528 1529 1531 1532 1533 1534 1535 1536 1537 1537 1538 1538 1539 1539 1539 1538 1538 1538 1538 1539 1539 1539 1538 1538 1537 1536 1535 1534 1533 1532 1530 1528
1509 1511 1512 1514 1515 1517 1519 1521 1522 1524 1525 1526 1527 1528 1530 1531 1532 1533 1534 1535 1536 1536 1537 1537 1537 1537 1537 1537 1537 1537 1538 1538 1538 1537 1537 1536 1536 1535 1533 1532 1531 1529 1527
1508 1509 1511 1512 1514 1516 1517 1519 1520 1521 1523 1524 1525 1526 1528 1529 1530 1531 1532 1533 1534 1535 1535 1535 1536 1536 1536 1536 1536 1536 1536 1536 1536 1536 1536 1535 1535 1534 1532 1531 1530 1528 1526
1506 1507 1509 1510 1512 1513 1515 1516 1518 1519 1520 1522 1523 1524 1525 1526 1528 1529 1530 1531 1532 1533 1533 1534 1534 1534 1535 1535 1535 1535 1535 1535 1535 1535 1535 1534 1533 1532 1531 1530 1528 1526 1524
1504 1505 1506 1508 1509 1511 1513 1514 1516 1517 1518 1519 1521 1522 1523 1524 1525 1527 1528 1529 1530 1531 1531 1532 1532 1533 1533 1533 1533 1533 1534 1534 1534 1534 1533 1533 1532 1531 1530 1528 1526 1525 1523
1502 1503 1504 1505 1507 1508 1510 1511 1513 1514 1516 1517 1518 1520 1521 1521 1522 1524 1525 1527 1528 1529 1529 1530 1531 1531 1532 1532 1532 1532 1532 1532 1532 1532 1532 1531 1530 1529 1528 1526 1525 1523 1520
1499 1500 1501 1502 1503 1505 1507 1508 1510 1511 1512 1514 1515 1516 1518 1519 1520 1521 1523 1524 1525 1526 1527 1528 1529 1529 1530 1530 1531 1531 1531 1531 1531 1530 1530 1529 1529 1527 1526 1524 1523 1521 1519
1497 1498 1498 1500 1500 1503 1505 1506 1507 1509 1510 1511 1512 1513 1515 1516 1517 1519 1520 1521 1523 1524 1525 1525 1526 1527 1527 1528 1529 1530 1531 1531 1529 1528 1528 1527 1527 1525 1524 1522 1520 1518 1516
1494 1495 1496 1496 1498 1500 1502 1504 1506 1507 1508 1509 1510 1511 1512 1513 1514 1516 1517 1518 1520 1521 1522 1522 1523 1524 1525 1526 1527 1529 1529 1529 1528 1526 1525 1525 1524 1523 1521 1520 1518 1516 1514
1491 1493 1493 1494 1496 1498 1500 1501 1503 1504 1504 1505 1507 1508 1509 1510 1512 1513 1514 1516 1517 1518 1519 1520 1521 1522 1523 1524 1525 1525 1526 1526 1526 1525 1524 1523 1522 1521 1519 1517 1515 1513 1511
1490 1490 1491 1492 1494 1496 1497 1498 1500 1501 1502 1503 1504 1506 1507 1508 1509 1510 1512 1512 1514 1515 1516 1517 1519 1520 1521 1521 1522 1522 1523 1523 1523 1523 1522 1521 1519 1518 1516 1515 1513 1511 1509
1488 1488 1489 1490 1491 1493 1494 1495 1496 1497 1498 1500 1501 1503 1504 1505 1506 1508 1509 1510 1511 1512 1514 1515 1516 1517 1518 1518 1519 1520 1520 1521 1521 1520 1519 1517 1516 1515 1513 1512 1510 1508 1506